Hourly Data Report for February 09, 2004

TORONTO CITY
ONTARIO

43°40'00.000" N
79°24'00.000" W
112.50 m
6158355
71508
XTO

Download Data

Hourly Data (February 2004)
Hourly Data Report for February 9, 2004
TIME
LST
Temp Definition
°C
Dew Point Definition
°C
Rel Hum Definition
%
Precip. Amount Definition
mm

Wind Dir Definition
10's deg

Wind Spd Definition
km/h
Visibility Definition
km
Stn Press Definition
kPa
Hmdx Definition


Wind Chill Definition


Weather Definition


00:00 -2.9 -7.3 72   LegendMM LegendMM LegendMM 101.18     LegendNANA
01:00 -2.7 -7.4 70   LegendMM LegendMM LegendMM 101.11     LegendNANA
02:00 -2.2 -6.2 74   LegendMM LegendMM LegendMM 101.01     LegendNANA
03:00 -2.6 -6.0 77   LegendMM LegendMM LegendMM 100.91     LegendNANA
04:00 -2.5 -5.9 77   LegendMM LegendMM LegendMM 100.79     LegendNANA
05:00 -2.5 -5.5 80   LegendMM LegendMM LegendMM 100.77     LegendNANA
06:00 -2.6 -5.7 79   LegendMM LegendMM LegendMM 100.66     LegendNANA
07:00 -1.9 -5.1 79   LegendMM LegendMM LegendMM 100.54     LegendNANA
08:00 -1.1 -4.6 77   LegendMM LegendMM LegendMM 100.41     LegendNANA
09:00 -0.1 -4.2 74   LegendMM LegendMM LegendMM 100.36     LegendNANA
10:00 0.3 -4.2 72   LegendMM LegendMM LegendMM 100.28     LegendNANA
11:00 1.2 -3.6 70   LegendMM LegendMM LegendMM 100.22     LegendNANA
12:00 1.7 -2.9 71   LegendMM LegendMM LegendMM 100.18     LegendNANA
13:00 2.4 -2.8 68   LegendMM LegendMM LegendMM 100.10     LegendNANA
14:00 2.5 -2.6 69   LegendMM LegendMM LegendMM 100.08     LegendNANA
15:00 2.6 -2.5 69   LegendMM LegendMM LegendMM 100.11     LegendNANA
16:00 2.7 -2.5 69   LegendMM LegendMM LegendMM 100.14     LegendNANA
17:00 2.6 -2.2 71   LegendMM LegendMM LegendMM 100.13     LegendNANA
18:00 2.4 -2.5 70   LegendMM LegendMM LegendMM 100.16     LegendNANA
19:00 2.1 -2.5 72   LegendMM LegendMM LegendMM 100.19     LegendNANA
20:00 2.0 -2.4 73   LegendMM LegendMM LegendMM 100.19     LegendNANA
21:00 2.0 -2.5 72   LegendMM LegendMM LegendMM 100.20     LegendNANA
22:00 1.4 -3.2 71   LegendMM LegendMM LegendMM 100.25     LegendNANA
23:00 0.2 -4.4 71   LegendMM LegendMM LegendMM 100.30     LegendNANA

Notes on Data Quality.

Legend

  • E = Estimated
  • M = Missing
  • NA = Not Available*
  • [empty] = Indicates an unobserved value
Date modified: